Location: Indian Hills
(32.9760°N, 85.9450°W)
Time: 19:19:51
(UTC+00:00)

Timation 1 Rocket - Pass Details

Date: 09 December 2019
Orbit: 897 x 910 km, 70.0° (Epoch: 26 January)

Event Time Altitude Azimuth Distance (km) Brightness Sun altitude
Rises 11:14:43 0° 211° (SSW) 3,497 7.3 -16.4°
Reaches altitude 10° 11:17:14 10° 215° (SW) 2,560 6.5 -15.9°
Maximum altitude 11:23:03 59° 294° (WNW) 1,034 4.3 -14.8°
Drops below altitude 10° 11:28:55 10° 13° (NNE) 2,577 6.7 -13.6°
Sets 11:31:28 0° 18° (NNE) 3,522 7.4 -13.1°
